Location: Albany
(35.0170°S, 117.8920°E)
Time: 11:38:01
(UTC+08:00)

S-56A Canister/Altair - Pass Details

Date: 22 January 2021
Orbit: 631 x 2501 km, 38.9° (Epoch: 02 March)

Event Time Altitude Azimuth Distance (km) Brightness Sun altitude
Rises 16:54:02 0° 269° (W) 6,110 13.4 28.4°
Reaches altitude 10° 16:58:00 10° 267° (W) 5,161 13.5 27.6°
Maximum altitude 17:13:24 76° 180° (S) 2,411 10.5 24.4°
Drops below altitude 10° 17:25:54 10° 94° (E) 4,286 10.8 21.9°
Sets 17:28:52 0° 92° (E) 5,062 11.1 21.3°
